Change the Weather History Date:

Tuesday, May 14, 2013

  Actual Average (KLCI) Record (KLCI)
Temperature  
Mean Temperature 44 °F -  
Max Temperature 57 °F 67 °F 85 °F (1985)
Min Temperature 31 °F 42 °F 31 °F (1996)
Degree Days  
Heating Degree Days 21    
Moisture  
Dew Point 29 °F    
Average Humidity 60    
Maximum Humidity 100    
Minimum Humidity 26    
Precipitation  
Precipitation 0.00 in - - ()
Sea Level Pressure  
Sea Level Pressure 30.01 in    
Wind  
Wind Speed 5 mph (WNW)    
Max Wind Speed 15 mph    
Max Gust Speed 23 mph    
Visibility 10 miles    
Events      
Averages and records for this station are not official NWS values.
T = Trace of Precipitation, MM = Missing Value Source: NWS Daily Summary

Daily Weather History Graph

Daily Weather History Graph

Search for Another Location

Airport or City:

Trip Planner

Search our weather history database for the weather conditions in past years. The results will help you decide how hot, cold, wet, or windy it might be!

Date:

Astronomy

May. 14, 2013 Rise Set
Actual Time 5:22 AM EDT 8:04 PM EDT
Civil Twilight 4:49 AM EDT 8:38 PM EDT
Nautical Twilight 4:07 AM EDT 9:20 PM EDT
Astronomical Twilight 3:19 AM EDT 10:08 PM EDT
Moon 8:59 AM EDT (5/14) 11:49 PM EDT (5/14)
Length of Visible Light 15h 48m
Length of Day
14h 42m
Waxing Crescent, 19% of the Moon is Illuminated
May 14
Waxing Crescent
May 18
First Quarter
May 25
Full
May 31
Last Quarter
Jun 8
New

Hourly Weather History & Observations

Time (EDT) Temp. Windchill Dew Point Humidity Pressure Visibility Wind Dir Wind Speed Gust Speed Precip Events Conditions
12:15 AM 39.4 °F 37.2 °F 37.2 °F 92% 30.02 in 10.0 mi WNW 3.5 mph - N/A   Overcast
12:35 AM 40.3 °F 38.2 °F 36.0 °F 85% 30.01 in 10.0 mi West 3.5 mph - N/A   Overcast
12:55 AM 40.1 °F 36.9 °F 34.0 °F 79% 30.01 in 10.0 mi WNW 4.6 mph - N/A   Scattered Clouds
1:35 AM 35.8 °F - 34.7 °F 96% 30.01 in 10.0 mi Calm Calm - N/A   Mostly Cloudy
1:55 AM 36.0 °F - 35.2 °F 97% 30.02 in 10.0 mi Calm Calm - N/A   Mostly Cloudy
2:15 AM 36.7 °F 32.0 °F 35.8 °F 97% 30.02 in 10.0 mi East 5.8 mph - N/A   Overcast
2:35 AM 36.9 °F - 35.6 °F 95% 30.02 in 10.0 mi Calm Calm - N/A   Overcast
2:55 AM 36.9 °F - 35.1 °F 93% 30.02 in 10.0 mi Calm Calm - N/A   Mostly Cloudy
3:15 AM 35.8 °F - 34.3 °F 94% 30.02 in 10.0 mi Calm Calm - N/A   Scattered Clouds
3:35 AM 34.7 °F - 33.8 °F 97% 30.02 in 10.0 mi Calm Calm - N/A   Clear
3:55 AM 33.4 °F 30.4 °F 32.9 °F 98% 30.02 in 5.0 mi East 3.5 mph - N/A   Clear
4:15 AM 32.0 °F - 32.0 °F 100% 30.03 in 7.0 mi Calm Calm - N/A   Clear
4:35 AM 32.2 °F - 32.0 °F 99% 30.03 in 7.0 mi Calm Calm - N/A   Scattered Clouds
4:55 AM 32.0 °F - 32.0 °F 100% 30.04 in 7.0 mi Calm Calm - N/A   Clear
5:15 AM 31.8 °F - 31.6 °F 99% 30.04 in 7.0 mi Calm Calm - N/A   Clear
5:55 AM 31.6 °F - 31.6 °F 100% 30.04 in 7.0 mi Calm Calm - N/A   Scattered Clouds
6:15 AM 31.8 °F - 31.8 °F 100% 30.04 in 10.0 mi Calm Calm - N/A   Clear
6:35 AM 33.1 °F - 33.1 °F 100% 30.04 in 10.0 mi Calm Calm - N/A   Clear
6:55 AM 36.9 °F 33.1 °F 36.7 °F 99% 30.04 in 10.0 mi WNW 4.6 mph - N/A   Clear
7:15 AM 40.1 °F 34.7 °F 35.6 °F 84% 30.04 in 10.0 mi West 8.1 mph - N/A   Clear
7:35 AM 41.9 °F 38.2 °F 34.9 °F 76% 30.05 in 10.0 mi WNW 5.8 mph - N/A   Clear
7:55 AM 43.0 °F 38.2 °F 33.1 °F 68% 30.06 in 10.0 mi WNW 8.1 mph - N/A   Scattered Clouds
8:15 AM 45.3 °F 41.1 °F 30.9 °F 57% 30.06 in 10.0 mi NW 8.1 mph - N/A   Mostly Cloudy
8:35 AM 45.1 °F 40.3 °F 29.7 °F 55% 30.06 in 10.0 mi West 9.2 mph 16.1 mph N/A   Overcast
8:55 AM 46.0 °F 41.4 °F 29.1 °F 52% 30.05 in 10.0 mi WNW 9.2 mph - N/A   Mostly Cloudy
9:15 AM 46.6 °F - 27.7 °F 48% 30.05 in 10.0 mi West 11.5 mph 18.4 mph N/A   Scattered Clouds
9:35 AM 47.1 °F - 27.5 °F 47% 30.04 in 10.0 mi NW 13.8 mph 18.4 mph N/A   Scattered Clouds
9:55 AM 48.2 °F - 28.2 °F 46% 30.04 in 10.0 mi WNW 11.5 mph 19.6 mph N/A   Clear
10:15 AM 48.4 °F - 27.3 °F 44% 30.04 in 10.0 mi NW 10.4 mph 21.9 mph N/A   Scattered Clouds
10:35 AM 48.9 °F - 27.9 °F 44% 30.03 in 10.0 mi West 11.5 mph 21.9 mph N/A   Scattered Clouds
10:55 AM 49.5 °F - 27.3 °F 42% 30.03 in 10.0 mi West 15.0 mph 21.9 mph N/A   Scattered Clouds
11:15 AM 50.2 °F - 27.0 °F 41% 30.02 in 10.0 mi WNW 11.5 mph 20.7 mph N/A   Scattered Clouds
11:35 AM 51.8 °F - 27.3 °F 39% 30.02 in 10.0 mi West 13.8 mph 19.6 mph N/A   Scattered Clouds
11:55 AM 51.6 °F - 25.3 °F 36% 30.01 in 10.0 mi WNW 11.5 mph 19.6 mph N/A   Scattered Clouds
12:15 PM 52.0 °F - 25.7 °F 36% 30.01 in 10.0 mi West 12.7 mph 23.0 mph N/A   Scattered Clouds
12:35 PM 52.9 °F - 24.3 °F 33% 30.01 in 10.0 mi WNW 11.5 mph 23.0 mph N/A   Scattered Clouds
12:55 PM 54.7 °F - 24.8 °F 32% 30.01 in 10.0 mi WNW 12.7 mph 19.6 mph N/A   Clear
1:15 PM 54.5 °F - 24.1 °F 31% 30.01 in 10.0 mi NW 15.0 mph 20.7 mph N/A   Scattered Clouds
1:35 PM 54.1 °F - 22.8 °F 30% 30.00 in 10.0 mi NNW 12.7 mph 19.6 mph N/A   Scattered Clouds
1:55 PM 55.0 °F - 22.8 °F 29% 30.00 in 10.0 mi NW 11.5 mph 18.4 mph N/A   Mostly Cloudy
2:15 PM 55.4 °F - 24.3 °F 30% 30.00 in 10.0 mi WNW 15.0 mph 21.9 mph N/A   Scattered Clouds
2:35 PM 54.7 °F - 21.6 °F 28% 29.99 in 10.0 mi NNW 6.9 mph - N/A   Scattered Clouds
2:55 PM 56.3 °F - 21.7 °F 26% 29.98 in 10.0 mi WNW 9.2 mph 16.1 mph N/A   Mostly Cloudy
3:15 PM 55.8 °F - 21.4 °F 26% 29.98 in 10.0 mi West 9.2 mph - N/A   Mostly Cloudy
3:35 PM 55.0 °F - 20.8 °F 26% 29.97 in 10.0 mi NW 12.7 mph 18.4 mph N/A   Scattered Clouds
3:55 PM 56.7 °F - 22.3 °F 26% 29.97 in 10.0 mi West 9.2 mph - N/A   Mostly Cloudy
4:15 PM 57.0 °F - 23.0 °F 27% 29.97 in 10.0 mi WNW 13.8 mph - N/A   Mostly Cloudy
4:35 PM 55.9 °F - 22.1 °F 27% 29.97 in 10.0 mi West 11.5 mph 19.6 mph N/A   Mostly Cloudy
4:55 PM 56.3 °F - 21.6 °F 26% 29.96 in 10.0 mi NW 10.4 mph 16.1 mph N/A   Scattered Clouds
5:15 PM 56.3 °F - 21.2 °F 26% 29.96 in 10.0 mi NW 10.4 mph 17.3 mph N/A   Clear
5:35 PM 53.6 °F - 20.5 °F 27% 29.96 in 10.0 mi NW 8.1 mph - N/A   Clear
5:55 PM 55.2 °F - 20.5 °F 26% 29.96 in 10.0 mi WNW 9.2 mph - N/A   Clear
6:15 PM 52.9 °F - 21.2 °F 29% 29.96 in 10.0 mi WNW 9.2 mph - N/A   Clear
6:35 PM 53.2 °F - 20.7 °F 28% 29.96 in 10.0 mi WNW 10.4 mph - N/A   Clear
6:55 PM 53.6 °F - 21.4 °F 28% 29.96 in 10.0 mi NW 4.6 mph - N/A   Mostly Cloudy
7:15 PM 54.3 °F - 21.6 °F 28% 29.97 in 10.0 mi WNW 4.6 mph - N/A   Mostly Cloudy
7:35 PM 52.7 °F - 21.7 °F 30% 29.97 in 10.0 mi NW 5.8 mph - N/A   Scattered Clouds
7:55 PM 51.4 °F - 22.5 °F 32% 29.98 in 10.0 mi WNW 3.5 mph - N/A   Scattered Clouds
8:15 PM 48.9 °F - 27.3 °F 43% 29.99 in 10.0 mi Calm Calm - N/A   Scattered Clouds
9:15 PM 42.8 °F - 34.0 °F 71% 30.01 in 10.0 mi Calm Calm - N/A   Overcast
9:35 PM 43.0 °F - 32.2 °F 66% 30.01 in 10.0 mi Calm Calm - N/A   Mostly Cloudy
9:55 PM 40.6 °F - 33.3 °F 75% 30.02 in 10.0 mi Calm Calm - N/A   Scattered Clouds
10:15 PM 39.4 °F - 32.5 °F 76% 30.02 in 10.0 mi Calm Calm - N/A   Clear
10:35 PM 37.9 °F - 33.3 °F 83% 30.03 in 10.0 mi Calm Calm - N/A   Clear
10:55 PM 36.1 °F - 33.1 °F 89% 30.03 in 10.0 mi Calm Calm - N/A   Clear
11:15 PM 35.4 °F - 33.3 °F 92% 30.03 in 10.0 mi Calm Calm - N/A   Clear
11:35 PM 35.1 °F - 33.1 °F 92% 30.04 in 10.0 mi Calm Calm - N/A   Clear
11:55 PM 33.8 °F - 32.4 °F 94% 30.04 in 10.0 mi Calm Calm - N/A   Clear